TimeEST,TemperatureF,Dew PointF,Humidity,Sea Level PressureIn,VisibilityMPH,Wind Direction,Wind SpeedMPH,Gust SpeedMPH,PrecipitationIn,Events,Conditions,WindDirDegrees,DateUTC
12:52 AM,10.9,3.0,70,30.18,10.0,Calm,Calm,-,N/A,,Clear,0,2013-02-19 05:52:00
1:52 AM,12.0,3.9,70,30.19,10.0,Calm,Calm,-,N/A,,Clear,0,2013-02-19 06:52:00
2:52 AM,10.9,3.9,73,30.17,10.0,Calm,Calm,-,N/A,,Mostly Cloudy,0,2013-02-19 07:52:00
3:52 AM,14.0,6.1,71,30.14,10.0,Calm,Calm,-,N/A,,Overcast,0,2013-02-19 08:52:00
4:52 AM,16.0,8.1,71,30.14,10.0,Calm,Calm,-,N/A,,Mostly Cloudy,0,2013-02-19 09:52:00
5:52 AM,15.1,8.1,74,30.12,10.0,Calm,Calm,-,N/A,,Mostly Cloudy,0,2013-02-19 10:52:00
6:52 AM,14.0,7.0,74,30.11,10.0,Calm,Calm,-,N/A,,Partly Cloudy,0,2013-02-19 11:52:00
7:52 AM,16.0,8.1,71,30.10,9.0,Calm,Calm,-,N/A,,Clear,0,2013-02-19 12:52:00
8:52 AM,21.0,7.0,55,30.08,10.0,Calm,Calm,-,N/A,,Clear,0,2013-02-19 13:52:00
9:52 AM,28.9,10.9,47,30.05,10.0,Calm,Calm,-,N/A,,Clear,0,2013-02-19 14:52:00
10:52 AM,35.1,21.0,57,30.03,10.0,South,11.5,-,N/A,,Clear,180,2013-02-19 15:52:00
11:52 AM,37.9,24.1,57,29.98,10.0,South,9.2,-,N/A,,Clear,170,2013-02-19 16:52:00
1:52 PM,43.0,25.0,49,29.88,10.0,South,11.5,19.6,N/A,,Clear,170,2013-02-19 18:52:00
2:52 PM,43.0,28.0,56,29.85,10.0,South,10.4,-,N/A,,Overcast,180,2013-02-19 19:52:00
3:52 PM,39.9,33.1,77,29.82,10.0,South,9.2,18.4,0.00,Rain,Light Rain,170,2013-02-19 20:52:00
4:10 PM,39.2,33.8,81,29.78,10.0,SSW,8.1,-,0.00,,Overcast,200,2013-02-19 21:10:00
4:52 PM,39.9,35.1,83,29.79,10.0,South,11.5,21.9,0.00,,Overcast,180,2013-02-19 21:52:00
5:52 PM,37.9,37.0,97,29.75,9.0,Calm,Calm,-,0.01,Rain,Light Rain,0,2013-02-19 22:52:00
6:05 PM,37.4,35.6,93,29.72,6.0,Calm,Calm,-,0.02,Rain,Light Rain,0,2013-02-19 23:05:00
7:52 PM,36.0,35.1,97,29.68,0.8,Calm,Calm,-,0.02,Rain,Light Rain,0,2013-02-20 00:52:00
8:42 PM,35.6,35.6,100,29.64,0.5,Calm,Calm,-,0.00,Fog-Rain,Light Rain,0,2013-02-20 01:42:00
8:52 PM,34.0,34.0,100,29.64,0.8,ENE,3.5,-,0.00,Rain,Light Rain,70,2013-02-20 01:52:00
8:59 PM,35.6,35.6,100,29.61,1.0,East,3.5,-,0.00,Rain,Light Rain,90,2013-02-20 01:59:00
9:23 PM,33.8,33.8,100,29.61,0.8,Calm,Calm,-,0.00,Rain,Light Rain,0,2013-02-20 02:23:00
9:38 PM,33.8,33.8,100,29.61,1.0,Calm,Calm,-,0.01,Rain,Light Rain,0,2013-02-20 02:38:00
9:47 PM,35.6,33.8,93,29.61,1.2,SSW,4.6,-,0.01,Rain,Light Rain,200,2013-02-20 02:47:00
9:52 PM,35.1,35.1,100,29.63,1.5,SSW,3.5,-,0.01,Rain,Light Rain,200,2013-02-20 02:52:00
10:01 PM,33.8,33.8,100,29.61,1.8,South,3.5,-,0.00,Rain,Light Rain,190,2013-02-20 03:01:00
10:09 PM,33.8,33.8,100,29.62,2.5,Calm,Calm,-,0.00,Rain,Light Rain,0,2013-02-20 03:09:00
10:17 PM,33.8,33.8,100,29.61,1.8,Calm,Calm,-,0.01,Rain,Light Rain,0,2013-02-20 03:17:00
10:22 PM,33.8,33.8,100,29.60,1.0,Calm,Calm,-,0.01,Rain,Light Rain,0,2013-02-20 03:22:00
10:28 PM,35.6,35.6,100,29.59,1.5,Calm,Calm,-,0.01,Rain,Light Rain,0,2013-02-20 03:28:00
10:32 PM,35.6,35.6,100,29.59,3.0,Calm,Calm,-,0.02,Rain,Light Rain,0,2013-02-20 03:32:00
10:48 PM,37.4,35.6,93,29.59,8.0,SW,4.6,-,0.02,Rain,Light Rain,230,2013-02-20 03:48:00
10:52 PM,37.0,35.1,93,29.61,10.0,SW,3.5,-,0.02,Rain,Light Rain,230,2013-02-20 03:52:00
11:52 PM,35.1,34.0,96,29.59,7.0,Calm,Calm,-,0.00,,Overcast,0,2013-02-20 04:52:00